Location: Dal�� Lhota
(48.7500°N, 14.0167°E)
Time: 02:07:13
(UTC+00:00)

Cosmos 1674 - Pass Details

Date: 24 September 2020
Orbit: 494 x 518 km, 82.5° (Epoch: 29 October)

Event Time Altitude Azimuth Distance (km) Brightness Sun altitude
Rises 18:50:21 0° 344° (NNW) 2,655 6.9 -19.1°
Reaches altitude 10° 18:52:34 10° 337° (NNW) 1,761 6.0 -19.5°
Maximum altitude 18:56:13 41° 267° (W) 758 3.9 -20.0°
Drops below altitude 10° 18:59:49 10° 196° (SSW) 1,739 5.3 -20.6°
Enters shadow 19:00:04 - 195° (SSW) 1,833 5.4 -20.6°
